THOR ABLESTAR DEB, 333

Orbit data source: Space-Track

THOR ABLESTAR DEB, 333 is space debris in LEO originally from a launch on Thu, 29 Jun 1961 UTC launched from the Air Force Eastern Test Range (AFETR). Debris objects in space refer to the collection of defunct objects orbiting the Earth. Examples of debris include non-operational satellites, rocket bodies, and fragments generated from explosions, collisions, or faulty payload assembly.

Loading next visibility...
Identifier
333, 1961-015DK
Orbit
LEO
Last TLE update
13 hours ago
Origin
Manufacturer
Unknown
Mission
Spacecraft
Bus & Motor
Unknown
Mass
Unknown
Launch date (UTC)
1961-06-29 (64 years ago)
Launch vehicle
Unknown
Launch site
Air Force Eastern Test Range (AFETR)
Object type
Payload
Rocket body
Debris
Shape & HBR
Unknown
Radar Cross Section
Small (<0.1 m²)

Expand to show TLE details & history

TLE from 13 hours ago
0 THOR ABLESTAR DEB
1 00333U 61015DK  25199.90131966  .00006163  00000-0  83889-3 0  9998
2 00333  66.7036  13.1035 0040226 200.5442 159.4066 14.78855844339429
Epoch: 2025-07-18T21:37Z
TLE epoch observation values (Epoch: 2025-07-18T21:37:54.018Z)
Latitude
-0.00001°
Longitude
111.68229°
Altitude
661.511 km
Speed
7.513 km/s
True Right ascension
00h 52m 24s
True Declination
0° 00' 00"
Sunlit
Object was in daylight at epoch
Visualization orbit readout
Latitude
65.897°
Longitude
-176.70196°
Altitude
656.113 km
Speed
7.529 km/s
Apparent Right ascension
09h 44m 44s
Apparent Declination
22° 40' 31"
Sunlit
Object is in daylight
Visualization observer readout
Local Sidereal Time
23:49:07
Azimuth
30.699° NE
Elevation
-21.016°
Doppler factor
1
Orbital elements
Apogee altitude
659.472 km
Perigee altitude
603.079 km
Semi-major axis
7,009.412 km
Eccentricity
0.00402
Inclination
66.7036°
RAAN
13.1035°
Arg. of periapsis
200.5442°
True anomaly
159.56797°
Mean anomaly
159.4066°
Eccentric anomaly
159.48736°
Mean motion
3.69846 °/min
Orbital period
97.34 mins
BSTAR
0.00083889
Loading maneuver chart data...
Loading SW <> Apogee altitude chart data...
|